Time,TemperatureF,DewpointF,PressureIn,WindDirection,WindDirectionDegrees,WindSpeedMPH,WindSpeedGustMPH,Humidity,HourlyPrecipIn,Conditions,Clouds,dailyrainin,SoftwareType,DateUTC
2013-05-29 00:00:00,53.5,43.6,29.49,East,82,1.0,1.0,69,0.00,,,0.00,Wunderground v.1.15,2013-05-29 06:00:00,
2013-05-29 00:05:00,53.6,44.0,29.51,East,82,1.0,1.0,70,0.00,,,0.00,Wunderground v.1.15,2013-05-29 06:05:00,
2013-05-29 00:15:00,53.6,44.0,29.51,SE,128,1.0,6.0,70,0.00,,,0.00,Wunderground v.1.15,2013-05-29 06:15:00,
2013-05-29 00:20:00,53.6,44.0,29.52,East,101,4.0,6.0,70,0.00,,,0.00,Wunderground v.1.15,2013-05-29 06:20:00,
2013-05-29 00:25:00,53.5,44.3,29.52,ESE,122,5.0,6.0,71,0.00,,,0.00,Wunderground v.1.15,2013-05-29 06:25:00,
2013-05-29 00:30:00,53.2,44.8,29.52,South,172,5.0,5.0,73,0.00,,,0.00,Wunderground v.1.15,2013-05-29 06:30:00,
2013-05-29 00:40:00,52.6,44.5,29.52,SE,131,6.0,6.0,74,0.00,,,0.00,Wunderground v.1.15,2013-05-29 06:40:00,
2013-05-29 00:45:00,52.4,44.7,29.52,East,94,6.0,6.0,75,0.00,,,0.00,Wunderground v.1.15,2013-05-29 06:45:00,
2013-05-29 00:50:00,52.2,44.5,29.52,ESE,103,6.0,6.0,75,0.00,,,0.00,Wunderground v.1.15,2013-05-29 06:50:00,
2013-05-29 00:55:00,52.1,44.4,29.52,ESE,106,5.0,7.0,75,0.00,,,0.00,Wunderground v.1.15,2013-05-29 06:55:00,
2013-05-29 01:00:00,52.1,44.8,29.52,ESE,110,5.0,6.0,76,0.00,,,0.00,Wunderground v.1.15,2013-05-29 07:00:00,
2013-05-29 01:05:00,52.0,44.3,29.52,SSE,155,6.0,7.0,75,0.00,,,0.00,Wunderground v.1.15,2013-05-29 07:05:00,
2013-05-29 01:15:00,52.0,44.7,29.52,SE,133,5.0,8.0,76,0.00,,,0.00,Wunderground v.1.15,2013-05-29 07:15:00,
2013-05-29 01:20:00,52.0,44.3,29.52,SSE,147,6.0,8.0,75,0.00,,,0.00,Wunderground v.1.15,2013-05-29 07:20:00,
2013-05-29 01:25:00,52.0,44.3,29.52,ESE,123,6.0,8.0,75,0.00,,,0.00,Wunderground v.1.15,2013-05-29 07:25:00,
2013-05-29 01:30:00,52.1,44.1,29.51,East,91,4.0,4.0,74,0.00,,,0.00,Wunderground v.1.15,2013-05-29 07:30:00,
2013-05-29 01:40:00,52.1,44.1,29.51,SE,133,4.0,4.0,74,0.00,,,0.00,Wunderground v.1.15,2013-05-29 07:40:00,
2013-05-29 01:45:00,52.1,44.1,29.51,SE,126,4.0,4.0,74,0.00,,,0.00,Wunderground v.1.15,2013-05-29 07:45:00,
2013-05-29 01:50:00,52.0,44.0,29.51,SE,129,5.0,6.0,74,0.00,,,0.00,Wunderground v.1.15,2013-05-29 07:50:00,
2013-05-29 02:00:00,51.7,43.3,29.51,ESE,105,3.0,5.0,73,0.00,,,0.00,Wunderground v.1.15,2013-05-29 08:00:00,
2013-05-29 02:05:00,51.7,43.3,29.50,ESE,117,3.0,5.0,73,0.00,,,0.00,Wunderground v.1.15,2013-05-29 08:05:00,
2013-05-29 02:15:00,51.5,43.5,29.50,ESE,107,2.0,3.0,74,0.00,,,0.00,Wunderground v.1.15,2013-05-29 08:15:00,
2013-05-29 02:20:00,51.4,43.4,29.51,ESE,106,1.0,1.0,74,0.00,,,0.00,Wunderground v.1.15,2013-05-29 08:20:00,
2013-05-29 02:25:00,51.2,43.5,29.51,ESE,106,0.0,1.0,75,0.00,,,0.00,Wunderground v.1.15,2013-05-29 08:25:00,
2013-05-29 02:30:00,51.1,43.8,29.51,ESE,103,1.0,2.0,76,0.00,,,0.00,Wunderground v.1.15,2013-05-29 08:30:00,
2013-05-29 02:35:00,51.0,43.7,29.51,ESE,103,1.0,2.0,76,0.00,,,0.00,Wunderground v.1.15,2013-05-29 08:35:00,
2013-05-29 02:45:00,50.8,43.5,29.52,ESE,103,0.0,0.0,76,0.00,,,0.00,Wunderground v.1.15,2013-05-29 08:45:00,
2013-05-29 02:50:00,50.4,43.1,29.52,ESE,103,0.0,0.0,76,0.00,,,0.00,Wunderground v.1.15,2013-05-29 08:50:00,
2013-05-29 02:55:00,50.1,43.2,29.52,ESE,103,1.0,1.0,77,0.00,,,0.00,Wunderground v.1.15,2013-05-29 08:55:00,
2013-05-29 03:05:00,49.8,43.2,29.53,ESE,103,1.0,2.0,78,0.00,,,0.00,Wunderground v.1.15,2013-05-29 09:05:00,
2013-05-29 03:15:00,49.6,43.4,29.53,ESE,102,0.0,1.0,79,0.00,,,0.00,Wunderground v.1.15,2013-05-29 09:15:00,
2013-05-29 03:20:00,49.6,43.4,29.53,ESE,103,1.0,1.0,79,0.00,,,0.00,Wunderground v.1.15,2013-05-29 09:20:00,
2013-05-29 03:25:00,49.3,42.7,29.54,ESE,103,1.0,1.0,78,0.00,,,0.00,Wunderground v.1.15,2013-05-29 09:25:00,
2013-05-29 03:30:00,49.0,42.4,29.54,ESE,103,0.0,0.0,78,0.00,,,0.00,Wunderground v.1.15,2013-05-29 09:30:00,
2013-05-29 03:35:00,48.6,42.0,29.54,ESE,103,0.0,0.0,78,0.00,,,0.00,Wunderground v.1.15,2013-05-29 09:35:00,
2013-05-29 03:40:00,47.7,41.2,29.53,ESE,102,0.0,0.0,78,0.00,,,0.00,Wunderground v.1.15,2013-05-29 09:40:00,
2013-05-29 03:50:00,47.0,41.5,29.54,NE,48,0.0,0.0,81,0.00,,,0.00,Wunderground v.1.15,2013-05-29 09:50:00,
2013-05-29 03:55:00,46.9,41.4,29.54,NE,48,0.0,0.0,81,0.00,,,0.00,Wunderground v.1.15,2013-05-29 09:55:00,
2013-05-29 04:00:00,46.6,41.1,29.54,NE,48,0.0,0.0,81,0.00,,,0.00,Wunderground v.1.15,2013-05-29 10:00:00,
2013-05-29 04:05:00,46.5,41.3,29.54,NE,48,0.0,0.0,82,0.00,,,0.00,Wunderground v.1.15,2013-05-29 10:05:00,
2013-05-29 04:15:00,46.3,41.4,29.56,NE,48,0.0,0.0,83,0.00,,,0.00,Wunderground v.1.15,2013-05-29 10:15:00,
2013-05-29 04:20:00,46.1,41.2,29.56,NE,48,0.0,0.0,83,0.00,,,0.00,Wunderground v.1.15,2013-05-29 10:20:00,
2013-05-29 04:25:00,45.9,41.0,29.55,NE,48,0.0,0.0,83,0.00,,,0.00,Wunderground v.1.15,2013-05-29 10:25:00,
2013-05-29 04:30:00,45.7,40.8,29.55,NE,48,0.0,0.0,83,0.00,,,0.00,Wunderground v.1.15,2013-05-29 10:30:00,
2013-05-29 04:35:00,45.9,41.3,29.55,NE,48,0.0,0.0,84,0.00,,,0.00,Wunderground v.1.15,2013-05-29 10:35:00,
2013-05-29 04:40:00,46.2,41.6,29.55,NE,48,0.0,0.0,84,0.00,,,0.00,Wunderground v.1.15,2013-05-29 10:40:00,
2013-05-29 04:50:00,46.3,41.7,29.55,NE,48,0.0,0.0,84,0.00,,,0.00,Wunderground v.1.15,2013-05-29 10:50:00,
2013-05-29 04:55:00,46.3,42.0,29.55,NE,48,0.0,0.0,85,0.00,,,0.00,Wunderground v.1.15,2013-05-29 10:55:00,
2013-05-29 05:00:00,46.4,42.1,29.55,NE,48,0.0,0.0,85,0.00,,,0.00,Wunderground v.1.15,2013-05-29 11:00:00,
2013-05-29 05:05:00,46.4,42.1,29.56,NE,48,0.0,0.0,85,0.00,,,0.00,Wunderground v.1.15,2013-05-29 11:05:00,
2013-05-29 05:15:00,46.4,42.1,29.56,NE,48,0.0,0.0,85,0.00,,,0.00,Wunderground v.1.15,2013-05-29 11:15:00,
2013-05-29 05:25:00,46.1,41.8,29.56,NE,48,0.0,0.0,85,0.00,,,0.00,Wunderground v.1.15,2013-05-29 11:25:00,
2013-05-29 05:30:00,45.7,41.1,29.56,NE,46,1.0,2.0,84,0.00,,,0.00,Wunderground v.1.15,2013-05-29 11:30:00,
2013-05-29 05:35:00,45.0,40.5,29.56,NE,48,1.0,2.0,84,0.00,,,0.00,Wunderground v.1.15,2013-05-29 11:35:00,
2013-05-29 05:40:00,44.7,40.2,29.57,NE,49,0.0,0.0,84,0.00,,,0.00,Wunderground v.1.15,2013-05-29 11:40:00,
2013-05-29 05:45:00,45.0,40.8,29.56,NE,49,0.0,0.0,85,0.00,,,0.00,Wunderground v.1.15,2013-05-29 11:45:00,
2013-05-29 05:55:00,44.9,40.7,29.57,NE,49,0.0,0.0,85,0.00,,,0.00,Wunderground v.1.15,2013-05-29 11:55:00,
2013-05-29 06:00:00,45.1,40.9,29.57,NE,49,0.0,0.0,85,0.00,,,0.00,Wunderground v.1.15,2013-05-29 12:00:00,
2013-05-29 06:05:00,45.2,41.0,29.60,NE,48,0.0,0.0,85,0.00,,,0.00,Wunderground v.1.15,2013-05-29 12:05:00,
2013-05-29 06:15:00,45.2,41.0,29.60,NE,49,0.0,0.0,85,0.00,,,0.00,Wunderground v.1.15,2013-05-29 12:15:00,
2013-05-29 06:25:00,45.4,41.2,29.60,NE,49,0.0,0.0,85,0.00,,,0.00,Wunderground v.1.15,2013-05-29 12:25:00,
2013-05-29 06:30:00,45.7,41.4,29.61,NE,49,0.0,0.0,85,0.00,,,0.00,Wunderground v.1.15,2013-05-29 12:30:00,
2013-05-29 06:40:00,46.0,42.0,29.61,NE,48,0.0,0.0,86,0.00,,,0.00,Wunderground v.1.15,2013-05-29 12:40:00,
2013-05-29 06:45:00,46.1,42.1,29.62,NE,49,0.0,0.0,86,0.00,,,0.00,Wunderground v.1.15,2013-05-29 12:45:00,
2013-05-29 06:50:00,46.3,42.3,29.62,NE,48,0.0,0.0,86,0.00,,,0.00,Wunderground v.1.15,2013-05-29 12:50:00,
2013-05-29 06:55:00,46.6,42.6,29.61,NE,48,0.0,0.0,86,0.00,,,0.00,Wunderground v.1.15,2013-05-29 12:55:00,
2013-05-29 07:00:00,46.8,42.8,29.61,NE,48,0.0,0.0,86,0.00,,,0.00,Wunderground v.1.15,2013-05-29 13:00:00,
2013-05-29 07:05:00,47.0,43.0,29.63,NE,48,0.0,0.0,86,0.00,,,0.00,Wunderground v.1.15,2013-05-29 13:05:00,
2013-05-29 07:15:00,47.5,43.5,29.63,NE,48,0.0,0.0,86,0.00,,,0.00,Wunderground v.1.15,2013-05-29 13:15:00,
2013-05-29 07:20:00,47.8,43.8,29.63,NE,48,0.0,0.0,86,0.00,,,0.00,Wunderground v.1.15,2013-05-29 13:20:00,
2013-05-29 07:30:00,48.6,44.6,29.61,NE,48,0.0,0.0,86,0.00,,,0.00,Wunderground v.1.15,2013-05-29 13:30:00,
2013-05-29 07:35:00,48.9,44.9,29.61,NE,49,0.0,0.0,86,0.00,,,0.00,Wunderground v.1.15,2013-05-29 13:35:00,
2013-05-29 07:40:00,49.2,45.2,29.61,NE,48,0.0,0.0,86,0.00,,,0.00,Wunderground v.1.15,2013-05-29 13:40:00,
2013-05-29 07:45:00,49.3,45.0,29.61,NE,49,0.0,0.0,85,0.00,,,0.00,Wunderground v.1.15,2013-05-29 13:45:00,
2013-05-29 07:50:00,49.4,45.1,29.61,NE,49,0.0,0.0,85,0.00,,,0.00,Wunderground v.1.15,2013-05-29 13:50:00,
2013-05-29 08:00:00,49.9,45.3,29.61,NE,48,0.0,0.0,84,0.00,,,0.00,Wunderground v.1.15,2013-05-29 14:00:00,
2013-05-29 08:05:00,50.9,46.2,29.63,North,9,0.0,1.0,84,0.00,,,0.00,Wunderground v.1.15,2013-05-29 14:05:00,
2013-05-29 08:15:00,53.4,47.0,29.62,NW,321,1.0,2.0,79,0.00,,,0.00,Wunderground v.1.15,2013-05-29 14:15:00,
2013-05-29 08:20:00,54.1,46.3,29.61,NW,321,2.0,2.0,75,0.00,,,0.00,Wunderground v.1.15,2013-05-29 14:20:00,
2013-05-29 08:25:00,55.0,46.5,29.61,North,9,2.0,3.0,73,0.00,,,0.00,Wunderground v.1.15,2013-05-29 14:25:00,
2013-05-29 08:30:00,55.3,44.9,29.61,NW,321,1.0,2.0,68,0.00,,,0.00,Wunderground v.1.15,2013-05-29 14:30:00,
2013-05-29 08:35:00,55.7,45.3,29.60,NNW,331,2.0,2.0,68,0.00,,,0.00,Wunderground v.1.15,2013-05-29 14:35:00,
2013-05-29 08:40:00,56.3,45.1,29.60,NW,321,2.0,3.0,66,0.00,,,0.00,Wunderground v.1.15,2013-05-29 14:40:00,
2013-05-29 08:45:00,56.6,45.4,29.60,West,281,2.0,3.0,66,0.00,,,0.00,Wunderground v.1.15,2013-05-29 14:45:00,
2013-05-29 08:50:00,56.7,45.1,29.60,WNW,286,3.0,3.0,65,0.00,,,0.00,Wunderground v.1.15,2013-05-29 14:50:00,
2013-05-29 08:55:00,56.8,44.7,29.60,WNW,303,3.0,3.0,64,0.00,,,0.00,Wunderground v.1.15,2013-05-29 14:55:00,
2013-05-29 09:05:00,57.1,44.6,29.63,WNW,300,2.0,3.0,63,0.00,,,0.00,Wunderground v.1.15,2013-05-29 15:05:00,
2013-05-29 09:15:00,57.4,44.5,29.63,NNW,327,2.0,2.0,62,0.00,,,0.00,Wunderground v.1.15,2013-05-29 15:15:00,
2013-05-29 09:20:00,58.0,45.0,29.63,NW,310,1.0,3.0,62,0.00,,,0.00,Wunderground v.1.15,2013-05-29 15:20:00,
2013-05-29 09:25:00,58.4,44.6,29.63,NW,308,1.0,3.0,60,0.00,,,0.00,Wunderground v.1.15,2013-05-29 15:25:00,
2013-05-29 09:35:00,59.0,45.1,29.62,NW,313,2.0,3.0,60,0.00,,,0.00,Wunderground v.1.15,2013-05-29 15:35:00,
2013-05-29 09:40:00,59.2,44.9,29.62,NE,44,2.0,2.0,59,0.00,,,0.00,Wunderground v.1.15,2013-05-29 15:40:00,
2013-05-29 09:45:00,60.2,45.4,29.62,North,5,2.0,2.0,58,0.00,,,0.00,Wunderground v.1.15,2013-05-29 15:45:00,
2013-05-29 09:50:00,60.6,42.9,29.61,West,279,2.0,2.0,52,0.00,,,0.00,Wunderground v.1.15,2013-05-29 15:50:00,
2013-05-29 09:55:00,60.8,40.4,29.61,WSW,242,3.0,3.0,47,0.00,,,0.00,Wunderground v.1.15,2013-05-29 15:55:00,
2013-05-29 10:05:00,61.4,40.4,29.62,WNW,288,3.0,5.0,46,0.00,,,0.00,Wunderground v.1.15,2013-05-29 16:05:00,
2013-05-29 10:15:00,61.7,39.6,29.60,North,355,3.0,4.0,44,0.00,,,0.00,Wunderground v.1.15,2013-05-29 16:15:00,
2013-05-29 10:25:00,62.1,38.7,29.60,West,259,5.0,5.0,42,0.00,,,0.00,Wunderground v.1.15,2013-05-29 16:25:00,
2013-05-29 10:30:00,62.2,38.2,29.60,WNW,300,6.0,6.0,41,0.00,,,0.00,Wunderground v.1.15,2013-05-29 16:30:00,
2013-05-29 10:40:00,63.4,39.3,29.59,NW,326,4.0,5.0,41,0.00,,,0.00,Wunderground v.1.15,2013-05-29 16:40:00,
2013-05-29 10:45:00,63.7,38.9,29.59,West,261,4.0,6.0,40,0.00,,,0.00,Wunderground v.1.15,2013-05-29 16:45:00,
2013-05-29 10:50:00,63.6,38.8,29.58,WSW,249,6.0,7.0,40,0.00,,,0.00,Wunderground v.1.15,2013-05-29 16:50:00,
2013-05-29 11:00:00,63.4,37.3,29.59,West,265,9.0,10.0,38,0.00,,,0.00,Wunderground v.1.15,2013-05-29 17:00:00,
2013-05-29 11:05:00,63.3,37.9,29.59,NW,304,8.0,10.0,39,0.00,,,0.00,Wunderground v.1.15,2013-05-29 17:05:00,
2013-05-29 11:15:00,63.7,36.9,29.58,WSW,257,9.0,11.0,37,0.00,,,0.00,Wunderground v.1.15,2013-05-29 17:15:00,
2013-05-29 11:20:00,63.5,37.4,29.58,SSW,200,10.0,11.0,38,0.00,,,0.00,Wunderground v.1.15,2013-05-29 17:20:00,
2013-05-29 11:25:00,63.2,37.8,29.59,SW,227,8.0,11.0,39,0.00,,,0.00,Wunderground v.1.15,2013-05-29 17:25:00,
2013-05-29 11:30:00,63.4,37.3,29.59,SW,235,9.0,14.0,38,0.00,,,0.00,Wunderground v.1.15,2013-05-29 17:30:00,
2013-05-29 11:40:00,64.3,37.5,29.58,West,275,9.0,12.0,37,0.00,,,0.00,Wunderground v.1.15,2013-05-29 17:40:00,
2013-05-29 11:45:00,64.3,38.1,29.58,SW,229,7.0,12.0,38,0.00,,,0.00,Wunderground v.1.15,2013-05-29 17:45:00,
2013-05-29 11:55:00,65.1,37.5,29.58,SSW,206,11.0,11.0,36,0.00,,,0.00,Wunderground v.1.15,2013-05-29 17:55:00,
2013-05-29 12:00:00,65.3,37.6,29.57,SW,223,12.0,12.0,36,0.00,,,0.00,Wunderground v.1.15,2013-05-29 18:00:00,
2013-05-29 12:05:00,66.0,38.3,29.57,West,263,12.0,15.0,36,0.00,,,0.00,Wunderground v.1.15,2013-05-29 18:05:00,
2013-05-29 12:10:00,65.1,37.5,29.58,SW,229,13.0,13.0,36,0.00,,,0.00,Wunderground v.1.15,2013-05-29 18:10:00,
2013-05-29 12:15:00,64.4,37.5,29.58,South,190,12.0,13.0,37,0.00,,,0.00,Wunderground v.1.15,2013-05-29 18:15:00,
2013-05-29 12:20:00,65.6,37.9,29.58,SSW,207,11.0,11.0,36,0.00,,,0.00,Wunderground v.1.15,2013-05-29 18:20:00,
2013-05-29 12:25:00,66.0,37.5,29.57,WSW,245,9.0,11.0,35,0.00,,,0.00,Wunderground v.1.15,2013-05-29 18:25:00,
2013-05-29 12:30:00,65.4,37.7,29.58,SW,233,8.0,10.0,36,0.00,,,0.00,Wunderground v.1.15,2013-05-29 18:30:00,
2013-05-29 12:35:00,65.0,35.9,29.58,WSW,248,9.0,10.0,34,0.00,,,0.00,Wunderground v.1.15,2013-05-29 18:35:00,
2013-05-29 12:45:00,65.5,37.8,29.56,WSW,253,7.0,8.0,36,0.00,,,0.00,Wunderground v.1.15,2013-05-29 18:45:00,
2013-05-29 12:50:00,66.0,39.0,29.56,NNE,19,6.0,6.0,37,0.00,,,0.00,Wunderground v.1.15,2013-05-29 18:50:00,
2013-05-29 12:55:00,66.8,38.3,29.56,WNW,290,5.0,6.0,35,0.00,,,0.00,Wunderground v.1.15,2013-05-29 18:55:00,
2013-05-29 13:00:00,67.2,36.3,29.56,WSW,248,8.0,11.0,32,0.00,,,0.00,Wunderground v.1.15,2013-05-29 19:00:00,
2013-05-29 13:05:00,66.7,36.7,29.56,WSW,247,11.0,11.0,33,0.00,,,0.00,Wunderground v.1.15,2013-05-29 19:05:00,
2013-05-29 13:15:00,66.6,37.3,29.55,West,278,11.0,12.0,34,0.00,,,0.00,Wunderground v.1.15,2013-05-29 19:15:00,
2013-05-29 13:20:00,67.0,36.9,29.55,SW,231,10.0,10.0,33,0.00,,,0.00,Wunderground v.1.15,2013-05-29 19:20:00,
2013-05-29 13:25:00,67.2,37.1,29.55,WSW,254,10.0,10.0,33,0.00,,,0.00,Wunderground v.1.15,2013-05-29 19:25:00,
2013-05-29 13:35:00,68.1,37.9,29.53,SSW,209,10.0,15.0,33,0.00,,,0.00,Wunderground v.1.15,2013-05-29 19:35:00,
2013-05-29 13:40:00,69.2,37.3,29.53,WNW,302,9.0,11.0,31,0.00,,,0.00,Wunderground v.1.15,2013-05-29 19:40:00,
2013-05-29 13:45:00,68.6,36.7,29.53,SW,225,9.0,11.0,31,0.00,,,0.00,Wunderground v.1.15,2013-05-29 19:45:00,
2013-05-29 13:50:00,68.0,36.2,29.53,WSW,256,11.0,11.0,31,0.00,,,0.00,Wunderground v.1.15,2013-05-29 19:50:00,
2013-05-29 13:55:00,67.6,36.7,29.53,WSW,250,9.0,11.0,32,0.00,,,0.00,Wunderground v.1.15,2013-05-29 19:55:00,
2013-05-29 14:05:00,68.5,35.8,29.53,SW,215,12.0,12.0,30,0.00,,,0.00,Wunderground v.1.15,2013-05-29 20:05:00,
2013-05-29 14:15:00,69.8,36.9,29.52,West,275,12.0,12.0,30,0.00,,,0.00,Wunderground v.1.15,2013-05-29 20:15:00,
2013-05-29 14:20:00,68.5,34.1,29.53,SW,234,12.0,17.0,28,0.00,,,0.00,Wunderground v.1.15,2013-05-29 20:20:00,
2013-05-29 14:25:00,68.6,34.2,29.53,WNW,286,15.0,17.0,28,0.00,,,0.00,Wunderground v.1.15,2013-05-29 20:25:00,
2013-05-29 14:30:00,69.1,34.6,29.53,South,180,14.0,14.0,28,0.00,,,0.00,Wunderground v.1.15,2013-05-29 20:30:00,
2013-05-29 14:35:00,69.7,36.0,29.52,West,268,10.0,15.0,29,0.00,,,0.00,Wunderground v.1.15,2013-05-29 20:35:00,
2013-05-29 14:40:00,69.9,35.3,29.51,SW,230,12.0,12.0,28,0.00,,,0.00,Wunderground v.1.15,2013-05-29 20:40:00,
2013-05-29 14:50:00,70.6,35.0,29.51,SW,232,10.0,14.0,27,0.00,,,0.00,Wunderground v.1.15,2013-05-29 20:50:00,
2013-05-29 14:55:00,69.8,33.3,29.51,West,276,13.0,14.0,26,0.00,,,0.00,Wunderground v.1.15,2013-05-29 20:55:00,
2013-05-29 15:00:00,70.0,33.5,29.50,West,267,14.0,14.0,26,0.00,,,0.00,Wunderground v.1.15,2013-05-29 21:00:00,
2013-05-29 15:05:00,69.9,34.4,29.52,SW,230,13.0,14.0,27,0.00,,,0.00,Wunderground v.1.15,2013-05-29 21:05:00,
2013-05-29 15:15:00,70.2,33.7,29.52,WSW,256,15.0,18.0,26,0.00,,,0.00,Wunderground v.1.15,2013-05-29 21:15:00,
2013-05-29 15:20:00,70.3,34.7,29.52,WSW,237,14.0,18.0,27,0.00,,,0.00,Wunderground v.1.15,2013-05-29 21:20:00,
2013-05-29 15:25:00,70.5,34.9,29.51,West,267,13.0,18.0,27,0.00,,,0.00,Wunderground v.1.15,2013-05-29 21:25:00,
2013-05-29 15:30:00,71.0,36.2,29.51,WSW,241,13.0,13.0,28,0.00,,,0.00,Wunderground v.1.15,2013-05-29 21:30:00,
2013-05-29 15:35:00,70.6,35.0,29.51,WSW,237,15.0,15.0,27,0.00,,,0.00,Wunderground v.1.15,2013-05-29 21:35:00,
2013-05-29 15:40:00,70.2,34.6,29.51,SW,223,16.0,16.0,27,0.00,,,0.00,Wunderground v.1.15,2013-05-29 21:40:00,
2013-05-29 15:45:00,71.0,35.3,29.50,SW,226,15.0,20.0,27,0.00,,,0.00,Wunderground v.1.15,2013-05-29 21:45:00,
2013-05-29 15:55:00,70.7,35.1,29.51,WSW,254,17.0,17.0,27,0.00,,,0.00,Wunderground v.1.15,2013-05-29 21:55:00,
2013-05-29 16:00:00,70.8,34.2,29.50,WSW,257,17.0,20.0,26,0.00,,,0.00,Wunderground v.1.15,2013-05-29 22:00:00,
2013-05-29 16:05:00,70.6,35.0,29.51,SW,235,16.0,20.0,27,0.00,,,0.00,Wunderground v.1.15,2013-05-29 22:05:00,
2013-05-29 16:15:00,71.3,34.6,29.51,West,267,17.0,18.0,26,0.00,,,0.00,Wunderground v.1.15,2013-05-29 22:15:00,
2013-05-29 16:20:00,70.4,35.7,29.51,SW,225,17.0,17.0,28,0.00,,,0.00,Wunderground v.1.15,2013-05-29 22:20:00,
2013-05-29 16:25:00,71.3,35.6,29.51,WSW,245,16.0,20.0,27,0.00,,,0.00,Wunderground v.1.15,2013-05-29 22:25:00,
2013-05-29 16:30:00,71.4,35.7,29.50,SSW,192,14.0,18.0,27,0.00,,,0.00,Wunderground v.1.15,2013-05-29 22:30:00,
2013-05-29 16:35:00,71.2,35.5,29.50,SW,227,15.0,18.0,27,0.00,,,0.00,Wunderground v.1.15,2013-05-29 22:35:00,
2013-05-29 16:40:00,71.7,35.0,29.50,WSW,256,15.0,15.0,26,0.00,,,0.00,Wunderground v.1.15,2013-05-29 22:40:00,
2013-05-29 16:45:00,71.3,33.6,29.50,SSW,208,15.0,15.0,25,0.00,,,0.00,Wunderground v.1.15,2013-05-29 22:45:00,
2013-05-29 16:55:00,71.8,33.0,29.50,SW,228,14.0,19.0,24,0.00,,,0.00,Wunderground v.1.15,2013-05-29 22:55:00,
2013-05-29 17:00:00,71.8,34.1,29.50,WSW,248,15.0,21.0,25,0.00,,,0.00,Wunderground v.1.15,2013-05-29 23:00:00,
2013-05-29 17:05:00,72.2,33.4,29.51,WSW,246,16.0,21.0,24,0.00,,,0.00,Wunderground v.1.15,2013-05-29 23:05:00,
2013-05-29 17:15:00,71.8,33.0,29.51,WSW,238,17.0,20.0,24,0.00,,,0.00,Wunderground v.1.15,2013-05-29 23:15:00,
2013-05-29 17:20:00,71.4,33.7,29.51,WSW,244,17.0,23.0,25,0.00,,,0.00,Wunderground v.1.15,2013-05-29 23:20:00,
2013-05-29 17:30:00,71.7,33.0,29.50,WSW,256,17.0,19.0,24,0.00,,,0.00,Wunderground v.1.15,2013-05-29 23:30:00,
2013-05-29 17:35:00,71.5,32.8,29.50,SW,230,17.0,19.0,24,0.00,,,0.00,Wunderground v.1.15,2013-05-29 23:35:00,
2013-05-29 17:40:00,71.2,33.6,29.50,West,261,17.0,17.0,25,0.00,,,0.00,Wunderground v.1.15,2013-05-29 23:40:00,
2013-05-29 17:45:00,71.3,33.6,29.51,WNW,290,17.0,17.0,25,0.00,,,0.00,Wunderground v.1.15,2013-05-29 23:45:00,
2013-05-29 17:50:00,71.3,33.6,29.50,West,263,16.0,19.0,25,0.00,,,0.00,Wunderground v.1.15,2013-05-29 23:50:00,
2013-05-29 18:00:00,70.6,33.0,29.50,WSW,255,16.0,16.0,25,0.00,,,0.00,Wunderground v.1.15,2013-05-30 00:00:00,
2013-05-29 18:05:00,70.6,33.0,29.50,WSW,238,15.0,19.0,25,0.00,,,0.00,Wunderground v.1.15,2013-05-30 00:05:00,
2013-05-29 18:15:00,70.4,32.9,29.51,SW,219,17.0,18.0,25,0.00,,,0.00,Wunderground v.1.15,2013-05-30 00:15:00,
2013-05-29 18:20:00,70.1,32.6,29.50,WSW,250,17.0,19.0,25,0.00,,,0.00,Wunderground v.1.15,2013-05-30 00:20:00,
2013-05-29 18:30:00,70.1,32.6,29.50,SW,228,16.0,16.0,25,0.00,,,0.00,Wunderground v.1.15,2013-05-30 00:30:00,
2013-05-29 18:35:00,69.3,31.9,29.51,WSW,248,14.0,16.0,25,0.00,,,0.00,Wunderground v.1.15,2013-05-30 00:35:00,
2013-05-29 18:40:00,68.5,31.3,29.51,WSW,241,12.0,12.0,25,0.00,,,0.00,Wunderground v.1.15,2013-05-30 00:40:00,
2013-05-29 18:45:00,68.1,31.9,29.52,SW,226,12.0,15.0,26,0.00,,,0.00,Wunderground v.1.15,2013-05-30 00:45:00,
2013-05-29 18:50:00,68.3,32.1,29.52,West,276,13.0,14.0,26,0.00,,,0.00,Wunderground v.1.15,2013-05-30 00:50:00,
2013-05-29 19:00:00,70.3,32.8,29.51,West,269,8.0,10.0,25,0.00,,,0.00,Wunderground v.1.15,2013-05-30 01:00:00,
2013-05-29 19:05:00,70.3,32.8,29.49,West,270,7.0,10.0,25,0.00,,,0.00,Wunderground v.1.15,2013-05-30 01:05:00,
2013-05-29 19:15:00,69.4,33.0,29.49,WNW,286,5.0,7.0,26,0.00,,,0.00,Wunderground v.1.15,2013-05-30 01:15:00,
2013-05-29 19:20:00,69.7,33.3,29.49,SW,236,3.0,7.0,26,0.00,,,0.00,Wunderground v.1.15,2013-05-30 01:20:00,
2013-05-29 19:25:00,69.8,32.4,29.49,WSW,252,6.0,11.0,25,0.00,,,0.00,Wunderground v.1.15,2013-05-30 01:25:00,
2013-05-29 19:35:00,69.7,32.3,29.49,West,263,10.0,13.0,25,0.00,,,0.00,Wunderground v.1.15,2013-05-30 01:35:00,
2013-05-29 19:40:00,69.6,32.2,29.49,WSW,246,9.0,9.0,25,0.00,,,0.00,Wunderground v.1.15,2013-05-30 01:40:00,
2013-05-29 19:45:00,69.4,31.0,29.50,West,262,10.0,10.0,24,0.00,,,0.00,Wunderground v.1.15,2013-05-30 01:45:00,
2013-05-29 19:55:00,69.0,30.7,29.50,West,260,11.0,11.0,24,0.00,,,0.00,Wunderground v.1.15,2013-05-30 01:55:00,
2013-05-29 20:05:00,68.3,31.1,29.47,West,272,8.0,10.0,25,0.00,,,0.00,Wunderground v.1.15,2013-05-30 02:05:00,
2013-05-29 20:15:00,67.4,30.3,29.48,West,265,8.0,13.0,25,0.00,,,0.00,Wunderground v.1.15,2013-05-30 02:15:00,
2013-05-29 20:25:00,67.3,30.2,29.49,WNW,291,9.0,9.0,25,0.00,,,0.00,Wunderground v.1.15,2013-05-30 02:25:00,
2013-05-29 20:35:00,66.8,29.8,29.49,WNW,296,7.0,8.0,25,0.00,,,0.00,Wunderground v.1.15,2013-05-30 02:35:00,
2013-05-29 20:40:00,66.3,30.4,29.51,West,276,6.0,6.0,26,0.00,,,0.00,Wunderground v.1.15,2013-05-30 02:40:00,
2013-05-29 20:45:00,65.8,30.9,29.51,WNW,289,5.0,6.0,27,0.00,,,0.00,Wunderground v.1.15,2013-05-30 02:45:00,
2013-05-29 20:50:00,65.3,31.3,29.51,NW,322,3.0,3.0,28,0.00,,,0.00,Wunderground v.1.15,2013-05-30 02:50:00,
2013-05-29 20:55:00,64.8,31.8,29.52,NW,324,2.0,5.0,29,0.00,,,0.00,Wunderground v.1.15,2013-05-30 02:55:00,
2013-05-29 21:05:00,64.0,32.7,29.51,NW,325,3.0,4.0,31,0.00,,,0.00,Wunderground v.1.15,2013-05-30 03:05:00,
2013-05-29 21:15:00,63.1,32.7,29.52,NW,325,3.0,5.0,32,0.00,,,0.00,Wunderground v.1.15,2013-05-30 03:15:00,
2013-05-29 21:20:00,62.7,33.2,29.52,NNW,338,3.0,3.0,33,0.00,,,0.00,Wunderground v.1.15,2013-05-30 03:20:00,
2013-05-29 21:25:00,62.3,32.8,29.53,NNW,334,2.0,3.0,33,0.00,,,0.00,Wunderground v.1.15,2013-05-30 03:25:00,
2013-05-29 21:30:00,61.8,33.1,29.53,WNW,286,2.0,4.0,34,0.00,,,0.00,Wunderground v.1.15,2013-05-30 03:30:00,
2013-05-29 21:35:00,60.7,32.9,29.54,West,272,2.0,4.0,35,0.00,,,0.00,Wunderground v.1.15,2013-05-30 03:35:00,
2013-05-29 21:40:00,60.2,32.4,29.56,WNW,291,2.0,3.0,35,0.00,,,0.00,Wunderground v.1.15,2013-05-30 03:40:00,
2013-05-29 21:45:00,60.3,33.2,29.56,NNW,337,3.0,5.0,36,0.00,,,0.00,Wunderground v.1.15,2013-05-30 03:45:00,
2013-05-29 21:50:00,60.5,33.4,29.56,NW,315,4.0,5.0,36,0.00,,,0.00,Wunderground v.1.15,2013-05-30 03:50:00,
2013-05-29 21:55:00,60.8,33.0,29.55,NW,326,4.0,7.0,35,0.00,,,0.00,Wunderground v.1.15,2013-05-30 03:55:00,
2013-05-29 22:00:00,61.0,33.1,29.55,NW,325,3.0,3.0,35,0.00,,,0.00,Wunderground v.1.15,2013-05-30 04:00:00,
2013-05-29 22:05:00,60.9,33.0,29.55,NW,321,2.0,3.0,35,0.00,,,0.00,Wunderground v.1.15,2013-05-30 04:05:00,
2013-05-29 22:15:00,59.6,33.3,29.56,West,272,2.0,2.0,37,0.00,,,0.00,Wunderground v.1.15,2013-05-30 04:15:00,
2013-05-29 22:20:00,59.3,33.0,29.56,West,272,2.0,3.0,37,0.00,,,0.00,Wunderground v.1.15,2013-05-30 04:20:00,
2013-05-29 22:30:00,59.3,33.0,29.57,West,275,1.0,1.0,37,0.00,,,0.00,Wunderground v.1.15,2013-05-30 04:30:00,
2013-05-29 22:35:00,59.0,32.7,29.57,West,275,0.0,1.0,37,0.00,,,0.00,Wunderground v.1.15,2013-05-30 04:35:00,
2013-05-29 22:40:00,59.0,32.7,29.57,West,275,1.0,1.0,37,0.00,,,0.00,Wunderground v.1.15,2013-05-30 04:40:00,
2013-05-29 22:45:00,59.0,34.7,29.57,West,275,0.0,1.0,40,0.00,,,0.00,Wunderground v.1.15,2013-05-30 04:45:00,
2013-05-29 22:50:00,58.4,32.9,29.58,West,275,0.0,0.0,38,0.00,,,0.00,Wunderground v.1.15,2013-05-30 04:50:00,
2013-05-29 22:55:00,58.3,33.4,29.58,West,275,0.0,0.0,39,0.00,,,0.00,Wunderground v.1.15,2013-05-30 04:55:00,
2013-05-29 23:00:00,58.3,33.4,29.58,West,275,0.0,0.0,39,0.00,,,0.00,Wunderground v.1.15,2013-05-30 05:00:00,
2013-05-29 23:05:00,58.2,33.3,29.57,West,275,0.0,0.0,39,0.00,,,0.00,Wunderground v.1.15,2013-05-30 05:05:00,
2013-05-29 23:15:00,58.5,33.6,29.57,West,275,0.0,0.0,39,0.00,,,0.00,Wunderground v.1.15,2013-05-30 05:15:00,
2013-05-29 23:20:00,58.3,34.1,29.57,West,275,0.0,0.0,40,0.00,,,0.00,Wunderground v.1.15,2013-05-30 05:20:00,
2013-05-29 23:25:00,58.1,33.9,29.57,West,275,0.0,0.0,40,0.00,,,0.00,Wunderground v.1.15,2013-05-30 05:25:00,
2013-05-29 23:30:00,57.9,33.7,29.57,West,275,0.0,0.0,40,0.00,,,0.00,Wunderground v.1.15,2013-05-30 05:30:00,
2013-05-29 23:35:00,57.7,34.1,29.57,West,275,0.0,0.0,41,0.00,,,0.00,Wunderground v.1.15,2013-05-30 05:35:00,
2013-05-29 23:45:00,56.8,33.9,29.58,West,275,0.0,0.0,42,0.00,,,0.00,Wunderground v.1.15,2013-05-30 05:45:00,
2013-05-29 23:50:00,56.4,34.2,29.58,West,275,0.0,0.0,43,0.00,,,0.00,Wunderground v.1.15,2013-05-30 05:50:00,
2013-05-29 23:55:00,55.6,34.6,29.58,West,275,0.0,0.0,45,0.00,,,0.00,Wunderground v.1.15,2013-05-30 05:55:00,